Airfield :
LOGIN :

Register | Disclaimer

   EN    FR    IT 

 










Legend :    VFR   Marginal VFR   IFR   Intensive IFR   Very Intensive IFR
Visi :
Ceiling :
>= 8 km
>= 3000ft
5 to 8 km
1000 to 3000 ft
1500m to 5 km
500 to 1000 ft
800 to 1500m
200 to 500 ft
< 800m
< 200 ft
Symbols :   Thunderstorms  Fog  Heavy snow  Heavy precipitations  Wind > 20 kt
SIGMETs :     Misc.  Thunderstorms  Icing  Turbulence  Mountain Waves  Volcanic Ashes







- Airport Elevation : 1058 ft
- IATA code : SCN


EDDR - Saarbrücken

CURRENT METAR :
  • 201450Z 05005KT 010V110 9999 FEW030 BKN170 03/M05 Q1015 NOSIG

EXPIRED METARs :
  • 211350Z 04013KT 010V080 CAVOK 05/M07 Q1018 NOSIG
  • 211320Z 04013KT 010V070 CAVOK 05/M06 Q1018 NOSIG
  • 211250Z 04010KT 360V070 CAVOK 04/M06 Q1019 NOSIG

TAF TAF EDDR
Valid from the 21 at 12:00 until the 22 at 12:00 UTC


211100Z 2112/2212 04011KT 9999 FEW020
PROB30
TEMPO 2114/2206 04015G25KT
TEMPO 2206/2212 05015G25KT
No reported NOTAMs for that airfield.



MET'MAP, your aeronautical weather chart ! - Copyright ORBIFLY December 2007 - Disclaimer

ORBIFLY MET'MAP TEAM :

Programming & Development : Alexandra Zaïnal
Concept & Development : Baudouin d'Aumeries
Co-Development & Prog : Marc-Olivier Méhu
Technical & hardware support : Manuel Goepfert

Contact : metmap@orbifly.com




SOURCES & CREDITS :

   NOAA